1498431601.14,52992,23.0,73974.8,6.13,5.19,5.11,0,*74
1498431602.35,52993,23.0,73972.5,6.09,5.15,5.15,0,*76
1498431603.57,52994,23.0,73970.8,6.13,5.19,5.11,0,*72
1498431604.78,52995,23.0,73972.5,6.13,5.19,5.23,0,*72
1498431606.0,52996,23.0,73972.3,6.13,5.19,5.11,0,*70
1498431607.21,52997,23.0,73972.3,6.13,5.19,5.23,0,*70
1498431608.43,52998,23.0,73970.0,6.13,5.23,5.23,0,*76
1498431609.66,52999,23.0,73970.0,6.09,5.27,5.19,0,*71
1498431610.87,53000,23.0,73972.8,6.13,5.29,5.19,0,*7C
1498431612.07,53001,23.0,73968.3,6.13,5.23,5.29,0,*74
1498431613.28,53002,23.0,73970.0,6.13,5.23,5.11,0,*7C
1498431614.55,53003,23.0,73968.8,6.09,5.05,4.93,0,*79
1498431615.81,53004,23.0,73968.5,6.09,5.05,4.97,0,*7A
1498431617.03,53005,23.0,73972.8,6.13,5.19,5.19,0,*7A
1498431618.24,53006,23.0,73970.8,6.13,5.19,5.19,0,*79
1498431619.45,53007,23.0,73970.8,6.13,5.23,5.19,0,*71
1498431620.67,53008,23.0,73970.5,6.09,5.07,5.15,0,*7F
1498431621.88,53009,23.0,73976.0,6.13,5.19,5.19,0,*76
1498431623.09,53010,23.0,73976.5,6.13,5.23,5.19,0,*77
1498431624.29,53011,23.0,73974.8,6.13,5.29,5.29,0,*7F
1498431625.49,53012,23.0,73970.5,6.13,5.33,5.29,0,*77
1498431626.69,53013,23.0,73968.0,6.13,5.33,5.29,0,*76
1498431627.9,53014,23.0,73974.3,6.13,5.41,5.33,0,*7F
1498431629.1,53015,23.0,73974.8,6.13,5.29,5.33,0,*70
1498431630.31,53016,23.0,73976.5,6.13,5.23,5.23,0,*78
1498431631.51,53017,23.0,73978.3,6.13,5.23,5.29,0,*73
1498431632.73,53018,23.0,73978.8,6.13,5.23,5.23,0,*76
1498431633.91,53019,23.0,73974.5,6.15,5.19,5.29,0,*72
1498431635.11,53020,23.0,73972.5,6.13,5.29,5.23,0,*77
1498431636.31,53021,23.0,73970.8,6.13,5.29,5.29,0,*7C
1498431637.51,53022,23.0,73972.3,6.13,5.29,5.29,0,*7F
1498431638.7,53023,23.0,73974.0,6.13,5.29,5.29,0,*7E
1498431639.92,53024,23.0,73972.0,6.09,5.37,5.19,0,*7E
1498431641.12,53025,23.0,73974.5,6.13,5.07,5.11,0,*7F
1498431642.33,53026,23.0,73974.3,6.13,5.11,5.11,0,*7B
1498431643.54,53027,23.0,73976.8,6.13,5.11,5.11,0,*7A
1498431644.76,53028,23.0,73976.5,6.13,5.19,5.11,0,*7D
1498431645.97,53029,23.0,73972.3,6.13,5.19,5.23,0,*7D
1498431647.17,53030,23.0,73974.0,6.13,5.29,5.29,0,*7C
1498431648.38,53031,23.0,73974.8,6.13,5.23,5.23,0,*7D
1498431649.59,53032,23.0,73972.8,6.13,5.23,5.19,0,*77
1498431650.83,53033,23.0,73972.3,6.09,5.27,5.19,0,*79
1498431652.08,53034,23.0,73976.8,6.09,5.27,5.27,0,*73
1498431653.28,53035,23.0,73974.0,6.13,5.23,5.29,0,*73
1498431654.48,53036,23.0,73974.8,6.13,5.29,5.29,0,*7A
1498431655.67,53037,23.0,73976.3,6.13,5.29,5.41,0,*75
1498431656.88,53038,23.0,73972.0,6.13,5.33,5.33,0,*74
1498431658.09,53039,23.0,73974.3,6.13,5.41,5.33,0,*70
1498431659.29,53040,23.0,73970.0,6.13,5.33,5.41,0,*7E
1498431660.54,53041,23.0,73970.5,6.09,5.27,5.27,0,*71
1498431661.75,53042,23.0,73972.0,6.13,5.23,5.23,0,*79
1498431662.95,53043,23.0,73972.5,6.13,5.29,5.29,0,*78
1498431664.16,53044,23.0,73970.3,6.13,5.29,5.23,0,*75
1498431665.36,53045,23.0,73970.3,6.13,5.29,5.19,0,*7D
1498431666.57,53046,23.0,73970.5,6.13,5.23,5.23,0,*7D
1498431667.79,53047,23.0,73972.5,6.13,5.23,5.23,0,*7C
1498431668.99,53048,23.0,73972.8,6.13,5.23,5.29,0,*79
1498431670.2,53049,23.0,73978.3,6.09,5.15,5.15,0,*79
1498431671.41,53050,23.0,73972.8,6.13,5.23,5.19,0,*73
1498431672.63,53051,23.0,73968.3,6.09,5.19,5.19,0,*70
1498431673.84,53052,23.0,73974.5,6.13,5.29,5.23,0,*72
1498431675.04,53053,23.0,73972.5,6.13,5.29,5.33,0,*72
1498431676.23,53054,23.0,73974.5,6.13,5.29,5.29,0,*7E
1498431677.44,53055,23.0,73972.5,6.13,5.33,5.33,0,*7F
1498431678.65,53056,23.0,73972.3,6.13,5.33,5.33,0,*7C
1498431679.85,53057,23.0,73974.8,6.13,5.41,5.41,0,*7D
1498431681.05,53058,23.0,73974.0,6.13,5.33,5.33,0,*72
1498431682.26,53059,23.0,73974.8,6.13,5.33,5.41,0,*76
1498431683.46,53060,23.0,73972.5,6.13,5.33,5.41,0,*7C
1498431684.66,53061,23.0,73972.3,6.13,5.33,5.41,0,*7D
1498431685.86,53062,23.0,73974.0,6.13,5.41,5.41,0,*7B
1498431687.06,53063,23.0,73974.5,6.13,5.41,5.41,0,*7A
1498431688.27,53064,23.0,73972.3,6.13,5.33,5.33,0,*7D
1498431689.48,53065,23.0,73972.3,6.13,5.29,5.23,0,*76
1498431690.69,53066,23.0,73968.8,6.13,5.19,5.23,0,*76
1498431691.9,53067,23.0,73966.0,6.13,5.29,5.23,0,*74
1498431693.1,53068,23.0,73964.8,6.13,5.29,5.33,0,*7A
1498431694.3,53069,23.0,73968.8,6.13,5.33,5.41,0,*75
1498431695.5,53070,23.0,73970.0,6.13,5.33,5.41,0,*7D
1498431696.71,53071,23.0,73970.5,6.13,5.41,5.33,0,*7C
1498431697.92,53072,23.0,73970.0,6.13,5.23,5.23,0,*7A
1498431699.11,53073,23.0,73972.0,6.15,5.23,5.23,0,*7D
1498431700.29,53074,23.0,73968.8,6.15,5.23,5.29,0,*70
1498431701.46,53075,23.0,73968.8,6.15,5.29,5.29,0,*7B
1498431702.64,53076,23.0,73968.5,6.15,5.33,5.29,0,*73
1498431703.83,53077,23.0,73970.8,6.15,5.33,5.33,0,*79
1498431705.0,53078,23.0,73970.5,6.15,5.33,5.41,0,*73
1498431706.21,53079,23.0,73968.8,6.09,5.37,5.37,0,*7A
1498431707.41,53080,23.0,73968.8,6.13,5.41,5.41,0,*77
1498431708.59,53081,23.0,73968.3,6.15,5.41,5.41,0,*70
1498431709.77,53082,23.0,73976.0,6.15,5.29,5.33,0,*78
1498431710.94,53083,23.0,73976.0,6.15,5.29,5.29,0,*72
1498431712.15,53084,23.0,73972.3,6.13,5.29,5.23,0,*79
1498431713.35,53085,23.0,73968.5,6.13,5.33,5.33,0,*72
1498431714.56,53086,23.0,73970.0,6.13,5.33,5.33,0,*71
1498431715.73,53087,23.0,73966.8,6.15,5.29,5.29,0,*76
1498431716.93,53088,23.0,73966.0,6.13,5.29,5.29,0,*7F
1498431718.12,53089,23.0,73964.8,6.13,5.29,5.33,0,*75
1498431719.33,53090,23.0,73964.3,6.13,5.33,5.33,0,*76
1498431720.53,53091,23.0,73966.5,6.13,5.33,5.41,0,*72
1498431721.74,53092,23.0,73970.3,6.13,5.33,5.29,0,*7F
1498431722.94,53093,23.0,73968.3,6.13,5.33,5.33,0,*75
1498431724.14,53094,23.0,73964.8,6.13,5.29,5.29,0,*72
1498431725.31,53095,23.0,73968.3,6.15,5.29,5.29,0,*75
1498431726.5,53096,23.0,73966.5,6.15,5.33,5.23,0,*77
1498431727.68,53097,23.0,73964.0,6.15,5.29,5.33,0,*7C
1498431728.85,53098,23.0,73966.5,6.15,5.29,5.29,0,*78
1498431730.05,53099,23.0,73970.5,6.13,5.33,5.33,0,*7F
1498431731.25,53100,23.0,73968.3,6.13,5.29,5.33,0,*75
1498431732.46,53101,23.0,73968.0,6.13,5.33,5.29,0,*74
1498431733.66,53102,23.0,73968.0,6.13,5.41,5.33,0,*79
1498431734.87,53103,23.0,73968.0,6.13,5.33,5.33,0,*7D
1498431736.07,53104,23.0,73966.8,6.13,5.29,5.33,0,*71
1498431737.24,53105,23.0,73970.8,6.15,5.41,5.41,0,*7D
1498431738.43,53106,23.0,73972.0,6.15,5.33,5.33,0,*7E
1498431739.61,53107,23.0,73972.8,6.15,5.33,5.41,0,*7A
1498431740.78,53108,23.0,73970.5,6.15,5.41,5.41,0,*70
1498431741.96,53109,23.0,73970.5,6.15,5.41,5.41,0,*71
1498431743.14,53110,23.0,73972.5,6.15,5.33,5.41,0,*7C
1498431744.33,53111,23.0,73970.0,6.15,5.33,5.33,0,*78
1498431745.51,53112,23.0,73972.0,6.15,5.41,5.33,0,*7E
1498431746.68,53113,23.0,73972.3,6.15,5.41,5.41,0,*7A
1498431747.86,53114,23.0,73968.8,6.15,5.41,5.41,0,*7D
1498431749.04,53115,23.0,73970.5,6.15,5.41,5.41,0,*7C
1498431750.22,53116,23.0,73974.0,6.15,5.41,5.41,0,*7F
1498431751.42,53117,23.0,73974.8,6.17,5.45,5.45,0,*7C
1498431752.59,53118,23.0,73970.0,6.15,5.41,5.41,0,*71
1498431753.8,53119,23.0,73974.3,6.17,5.37,5.45,0,*77
1498431755.0,53120,23.0,73974.8,6.17,5.37,5.37,0,*78
1498431756.18,53121,23.0,73976.5,6.15,5.33,5.41,0,*7E
1498431757.36,53122,23.0,73974.3,6.15,5.33,5.41,0,*7D
1498431758.54,53123,23.0,73974.8,6.15,5.41,5.33,0,*7C
1498431759.72,53124,23.0,73968.3,6.15,5.33,5.41,0,*7B
1498431760.9,53125,23.0,73966.8,6.15,5.41,5.41,0,*7F
1498431762.08,53126,22.94,73964.5,6.15,5.41,5.41,0,*7C
1498431763.26,53127,23.0,73968.3,6.15,5.41,5.33,0,*78
1498431764.46,53128,23.0,73964.8,6.17,5.37,5.45,0,*75
1498431765.66,53129,23.0,73964.5,6.17,5.45,5.45,0,*71
1498431766.84,53130,23.0,73966.8,6.15,5.41,5.41,0,*7B
1498431768.01,53131,23.0,73964.5,6.15,5.41,5.41,0,*7A
1498431769.19,53132,23.0,73964.5,6.15,5.41,5.41,0,*79
1498431770.37,53133,23.0,73966.5,6.15,5.41,5.33,0,*7D
1498431771.57,53134,23.0,73964.5,6.17,5.45,5.45,0,*7D
1498431772.75,53135,23.0,73964.5,6.15,5.41,5.41,0,*7E
1498431773.93,53136,23.0,73960.3,6.15,5.41,5.41,0,*7D
1498431775.1,53137,23.0,73962.8,6.15,5.45,5.45,0,*7C
1498431776.33,53138,23.0,73960.5,6.19,5.51,5.51,0,*7F
1498431777.53,53139,23.0,73960.3,6.17,5.49,5.49,0,*70
1498431778.73,53140,23.0,73960.5,6.17,5.49,5.49,0,*7E
1498431779.93,53141,23.0,73964.5,6.17,5.37,5.45,0,*7A
1498431781.14,53142,23.0,73964.0,6.17,5.37,5.37,0,*7C
1498431782.32,53143,23.0,73964.0,6.15,5.33,5.33,0,*7F
1498431783.53,53144,23.0,73966.5,6.17,5.33,5.33,0,*7A
1498431784.71,53145,23.0,73960.8,6.15,5.33,5.29,0,*72
1498431785.89,53146,23.0,73962.8,6.15,5.33,5.33,0,*7A
1498431787.09,53147,23.0,73962.3,6.17,5.37,5.45,0,*7C
1498431788.27,53148,23.0,73960.5,6.15,5.29,5.33,0,*7F
1498431789.47,53149,22.94,73964.3,6.17,5.37,5.37,0,*77
1498431790.67,53150,23.0,73968.5,6.17,5.37,5.45,0,*7A
1498431791.86,53151,23.0,73964.8,6.15,5.41,5.33,0,*79
1498431793.06,53152,23.0,73964.0,6.17,5.37,5.37,0,*7D
1498431794.24,53153,23.0,73968.3,6.15,5.33,5.33,0,*7E
1498431795.48,53154,23.0,73974.5,6.17,5.27,5.23,0,*7F
1498431796.65,53155,23.0,73968.3,6.15,5.29,5.29,0,*78
1498431797.85,53156,23.0,73964.8,6.17,5.45,5.45,0,*79
1498431799.04,53157,23.0,73962.8,6.17,5.45,5.45,0,*78
1498431800.22,53158,23.0,73962.3,6.15,5.41,5.41,0,*75
1498431801.42,53159,23.0,73964.0,6.17,5.45,5.37,0,*73
1498431802.62,53160,23.0,73962.3,6.17,5.37,5.37,0,*7C
1498431803.82,53161,23.0,73964.0,6.17,5.45,5.45,0,*7D
1498431805.0,53162,23.0,73966.3,6.15,5.41,5.45,0,*78
1498431806.2,53163,23.0,73966.5,6.17,5.45,5.45,0,*7F
1498431807.38,53164,23.0,73970.8,6.15,5.41,5.45,0,*7E
1498431808.55,53165,23.0,73974.0,6.15,5.41,5.45,0,*7F
1498431809.75,53166,23.0,73972.8,6.17,5.45,5.49,0,*76
1498431810.93,53167,22.94,73968.8,6.15,5.41,5.45,0,*7D
1498431812.11,53168,23.0,73966.3,6.15,5.41,5.49,0,*7E
1498431813.34,53169,23.0,73964.3,6.17,5.49,5.51,0,*7C
1498431814.51,53170,23.0,73956.8,6.15,5.45,5.45,0,*7F
1498431815.71,53171,23.0,73956.3,6.17,5.45,5.45,0,*7C
1498431816.89,53172,23.0,73958.3,6.15,5.41,5.41,0,*7D
1498431818.06,53173,22.94,73962.5,6.15,5.41,5.41,0,*7C
1498431819.26,53174,23.0,73964.0,6.17,5.45,5.45,0,*79
1498431820.47,53175,23.0,73966.3,6.17,5.37,5.33,0,*7C
1498431821.67,53176,23.0,73962.8,6.17,5.37,5.37,0,*7B
1498431822.9,53177,23.0,73966.5,6.17,5.27,5.33,0,*7F
1498431824.09,53178,23.0,73962.5,6.15,5.23,5.23,0,*77
1498431825.3,53179,22.94,73962.8,6.17,5.33,5.33,0,*74
1498431826.5,53180,23.0,73964.5,6.17,5.33,5.37,0,*76
1498431827.7,53181,22.94,73960.5,6.17,5.45,5.45,0,*73
1498431828.88,53182,23.0,73962.0,6.15,5.33,5.41,0,*77
1498431830.06,53183,23.0,73964.8,6.15,5.41,5.41,0,*73
1498431831.26,53184,23.0,73964.5,6.17,5.45,5.37,0,*73
1498431832.44,53185,23.0,73964.0,6.15,5.33,5.33,0,*75
1498431833.64,53186,23.0,73964.8,6.17,5.45,5.33,0,*75
1498431834.82,53187,23.0,73966.5,6.15,5.33,5.41,0,*72
1498431836.02,53188,23.0,73966.3,6.17,5.37,5.45,0,*7F
1498431837.22,53189,23.0,73966.0,6.17,5.45,5.45,0,*7B
1498431838.42,53190,23.0,73966.3,6.17,5.45,5.45,0,*73
1498431839.6,53191,23.0,73966.3,6.15,5.41,5.41,0,*70
1498431840.8,53192,23.0,73964.5,6.17,5.45,5.45,0,*71
1498431841.99,53193,22.94,73962.0,6.17,5.45,5.45,0,*70
1498431843.19,53194,22.94,73960.3,6.17,5.45,5.45,0,*77
1498431844.36,53195,23.0,73964.5,6.15,5.45,5.45,0,*74
1498431845.56,53196,23.0,73964.8,6.17,5.45,5.49,0,*79
1498431846.73,53197,22.94,73964.0,6.15,5.45,5.49,0,*7A
1498431847.94,53198,22.94,73962.3,6.17,5.37,5.45,0,*7E
1498431849.13,53199,22.94,73964.5,6.17,5.45,5.45,0,*7A
1498431850.33,53200,23.0,73966.5,6.17,5.45,5.45,0,*79
1498431851.53,53201,23.0,73966.5,6.17,5.45,5.45,0,*78
1498431852.73,53202,23.0,73960.3,6.17,5.45,5.45,0,*7B
1498431853.93,53203,23.0,73966.5,6.17,5.45,5.45,0,*7A
1498431855.11,53204,22.94,73964.0,6.19,5.49,5.49,0,*73
1498431856.29,53205,23.0,73966.0,6.19,5.49,5.49,0,*72
1498431857.47,53206,23.0,73960.5,6.19,5.49,5.49,0,*71
1498431858.65,53207,22.94,73956.8,6.19,5.49,5.41,0,*78
1498431859.84,53208,22.94,73960.0,6.17,5.45,5.45,0,*71
1498431861.04,53209,23.0,73966.0,6.17,5.45,5.49,0,*7C
1498431862.24,53210,22.94,73964.5,6.17,5.49,5.45,0,*74
1498431863.45,53211,23.0,73966.5,6.17,5.49,5.45,0,*75
1498431864.65,53212,23.0,73968.3,6.19,5.51,5.49,0,*7D
1498431865.85,53213,22.94,73964.5,6.19,5.51,5.49,0,*7C
1498431867.05,53214,22.94,73964.0,6.19,5.51,5.49,0,*7B
1498431868.28,53215,22.94,73968.8,6.19,5.51,5.51,0,*73
1498431869.51,53216,22.94,73966.5,6.19,5.55,5.51,0,*74
1498431870.74,53217,23.0,73970.5,6.21,5.55,5.51,0,*7E
1498431871.97,53218,22.94,73966.3,6.19,5.51,5.51,0,*7E
1498431873.15,53219,23.0,73966.8,6.19,5.41,5.37,0,*7E
1498431874.33,53220,23.0,73966.5,6.19,5.37,5.37,0,*75
1498431875.51,53221,22.94,73962.0,6.19,5.41,5.49,0,*7C
1498431876.68,53222,22.94,73966.8,6.21,5.49,5.49,0,*7C
1498431877.87,53223,23.0,73966.3,6.19,5.41,5.49,0,*7E
1498431879.05,53224,22.94,73966.3,6.19,5.49,5.49,0,*71
1498431880.23,53225,22.94,73966.5,6.19,5.49,5.49,0,*70
1498431881.4,53226,23.0,73968.8,6.21,5.41,5.49,0,*70
1498431882.58,53227,22.94,73966.3,6.19,5.49,5.49,0,*72
1498431883.76,53228,22.94,73966.5,6.19,5.49,5.49,0,*7D
1498431884.94,53229,22.94,73964.5,6.19,5.49,5.49,0,*7C
1498431886.17,53230,22.94,73964.8,6.19,5.51,5.51,0,*74
1498431887.4,53231,22.94,73966.3,6.21,5.51,5.51,0,*7E
1498431888.63,53232,23.0,73970.0,6.19,5.51,5.51,0,*76
1498431889.85,53233,22.94,73968.8,6.21,5.51,5.51,0,*7C
1498431891.07,53234,23.0,73970.8,6.21,5.51,5.51,0,*7B
1498431892.3,53235,23.0,73968.5,6.19,5.51,5.51,0,*71
1498431893.53,53236,22.94,73968.0,6.19,5.51,5.55,0,*76
1498431894.76,53237,22.94,73964.5,6.21,5.51,5.51,0,*78
1498431895.98,53238,22.94,73964.0,6.21,5.51,5.51,0,*77
1498431897.21,53239,23.0,73966.0,6.21,5.51,5.51,0,*76
1498431898.44,53240,22.94,73960.5,6.19,5.51,5.55,0,*77
1498431899.66,53241,22.94,73964.5,6.21,5.55,5.51,0,*7D
1498431900.89,53242,22.94,73966.3,6.21,5.51,5.51,0,*7A
1498431902.11,53243,22.94,73964.3,6.21,5.51,5.51,0,*7B
1498431903.34,53244,23.0,73968.8,6.21,5.51,5.51,0,*7C
1498431904.56,53245,22.94,73964.8,6.21,5.51,5.51,0,*7D
1498431905.78,53246,22.94,73966.0,6.21,5.51,5.51,0,*7E
1498431907.01,53247,23.0,73966.8,6.21,5.51,5.51,0,*7F
1498431908.21,53248,22.94,73964.0,6.21,5.51,5.49,0,*79
1498431909.38,53249,22.94,73966.3,6.21,5.41,5.41,0,*71
1498431910.57,53250,22.94,73964.8,6.19,5.41,5.41,0,*72
1498431911.75,53251,23.0,73968.0,6.19,5.49,5.49,0,*73
1498431912.92,53252,22.94,73966.0,6.19,5.49,5.49,0,*70
1498431914.1,53253,22.94,73964.5,6.19,5.49,5.49,0,*71
1498431915.31,53254,22.94,73968.0,6.19,5.51,5.49,0,*7F
1498431916.48,53255,22.94,73966.8,6.21,5.49,5.49,0,*7C
1498431917.66,53256,22.94,73968.3,6.19,5.49,5.49,0,*74
1498431918.84,53257,22.94,73970.0,6.21,5.49,5.41,0,*76
1498431920.02,53258,23.0,73970.0,6.19,5.49,5.49,0,*7A
1498431921.19,53259,22.94,73970.5,6.19,5.49,5.41,0,*73
1498431922.37,53260,23.0,73970.0,6.19,5.49,5.49,0,*71
1498431923.55,53261,22.94,73970.5,6.21,5.49,5.49,0,*7B
1498431924.73,53262,22.94,73968.5,6.19,5.49,5.49,0,*73
1498431925.9,53263,22.94,73968.0,6.21,5.49,5.49,0,*79
1498431927.08,53264,22.94,73966.3,6.19,5.49,5.49,0,*75
1498431928.26,53265,22.94,73968.8,6.21,5.49,5.49,0,*7F
1498431929.44,53266,23.0,73970.0,6.19,5.49,5.49,0,*77
1498431930.61,53267,22.94,73968.3,6.21,5.49,5.49,0,*7D
1498431931.79,53268,23.0,73970.5,6.19,5.41,5.49,0,*71
1498431932.97,53269,22.94,73968.5,6.21,5.41,5.49,0,*7B
1498431934.15,53270,22.94,73970.5,6.19,5.49,5.41,0,*78
1498431935.32,53271,22.94,73966.3,6.21,5.49,5.41,0,*72
1498431936.5,53272,22.94,73970.5,6.21,5.49,5.41,0,*71
1498431937.67,53273,22.94,73974.0,6.21,5.49,5.49,0,*78
1498431938.85,53274,22.94,73970.5,6.21,5.49,5.49,0,*7F
1498431940.02,53275,22.94,73972.3,6.21,5.49,5.49,0,*7E
1498431941.2,53276,22.94,73970.3,6.19,5.49,5.49,0,*76
1498431942.38,53277,22.94,73970.3,6.21,5.49,5.49,0,*7C
1498431943.55,53278,22.94,73968.3,6.21,5.49,5.49,0,*73
1498431944.73,53279,22.94,73972.0,6.19,5.49,5.49,0,*79
1498431945.9,53280,22.94,73968.8,6.21,5.49,5.41,0,*7C
1498431947.08,53281,22.94,73966.3,6.21,5.49,5.49,0,*75
1498431948.26,53282,22.94,73970.5,6.19,5.49,5.49,0,*7D
1498431949.44,53283,22.94,73970.5,6.19,5.37,5.41,0,*7D
1498431950.61,53284,22.94,73970.5,6.21,5.49,5.41,0,*78
1498431951.78,53285,22.94,73966.5,6.21,5.29,5.29,0,*71
1498431952.96,53286,22.94,73966.5,6.19,5.29,5.37,0,*76
1498431954.14,53287,22.94,73968.8,6.19,5.41,5.37,0,*79
1498431955.32,53288,22.94,73968.0,6.21,5.41,5.41,0,*7C
1498431956.49,53289,22.94,73970.8,6.21,5.49,5.49,0,*7D
1498431957.69,53290,22.94,73968.5,6.21,5.29,5.27,0,*7B
1498431958.91,53291,22.94,73970.8,6.19,5.05,5.07,0,*7D
1498431960.11,53292,22.94,73974.0,6.21,5.29,5.27,0,*79
1498431961.28,53293,22.94,73968.0,6.21,5.37,5.37,0,*76
1498431962.46,53294,22.94,73970.0,6.19,5.37,5.41,0,*7B
1498431963.64,53295,22.94,73970.3,6.19,5.41,5.41,0,*7B
1498431964.82,53296,23.0,73970.5,6.19,5.49,5.49,0,*78
1498431966.0,53297,22.94,73970.0,6.21,5.49,5.49,0,*72
1498431967.17,53298,22.94,73970.5,6.21,5.49,5.49,0,*7D
1498431968.35,53299,22.94,73968.8,6.21,5.49,5.49,0,*7C
1498431969.52,53300,22.94,73970.0,6.21,5.49,5.49,0,*7D
1498431970.7,53301,23.0,73972.5,6.19,5.29,5.29,0,*77
1498431971.89,53302,22.94,73968.5,6.21,5.27,5.29,0,*71
1498431973.07,53303,22.94,73970.8,6.19,5.37,5.41,0,*74
1498431974.25,53304,22.94,73972.5,6.19,5.41,5.49,0,*7A
1498431975.43,53305,22.94,73968.3,6.19,5.49,5.49,0,*73
1498431976.61,53306,22.94,73970.5,6.21,5.49,5.49,0,*7B
1498431977.81,53307,22.94,73970.8,6.21,5.49,5.51,0,*73
1498431978.98,53308,22.94,73970.3,6.21,5.49,5.49,0,*75
1498431980.16,53309,22.94,73968.8,6.19,5.49,5.49,0,*7F
1498431981.34,53310,22.94,73968.3,6.19,5.41,5.49,0,*7F
1498431982.52,53311,22.94,73968.8,6.21,5.49,5.49,0,*7D
1498431983.7,53312,22.94,73970.0,6.19,5.41,5.49,0,*7D
1498431984.88,53313,22.94,73968.8,6.21,5.49,5.49,0,*7F
1498431986.05,53314,22.94,73970.0,6.19,5.49,5.49,0,*73
1498431987.23,53315,22.94,73974.0,6.21,5.49,5.49,0,*79
1498431988.41,53316,22.94,73970.8,6.19,5.49,5.49,0,*71
1498431989.59,53317,22.94,73968.3,6.19,5.41,5.37,0,*71
1498431990.77,53318,22.94,73968.8,6.19,5.49,5.41,0,*77
1498431991.94,53319,22.94,73970.0,6.21,5.49,5.49,0,*75
1498431993.12,53320,22.94,73968.8,6.21,5.49,5.49,0,*7F
1498431994.29,53321,22.94,73970.0,6.21,5.49,5.49,0,*7E
1498431995.47,53322,22.94,73974.5,6.21,5.49,5.49,0,*7D
1498431996.65,53323,22.94,73972.3,6.19,5.37,5.41,0,*76
1498431997.83,53324,22.94,73970.8,6.21,5.41,5.37,0,*7A
1498431999.0,53325,22.94,73972.5,6.21,5.29,5.29,0,*7A
1498432000.17,53326,22.94,73968.0,6.21,5.37,5.41,0,*78
1498432001.35,53327,22.94,73968.0,6.21,5.41,5.37,0,*79
1498432002.52,53328,22.94,73968.8,6.21,5.49,5.49,0,*77
1498432003.7,53329,22.94,73968.0,6.19,5.49,5.41,0,*75
1498432004.88,53330,22.94,73968.8,6.21,5.49,5.49,0,*7E
1498432006.05,53331,22.94,73970.5,6.21,5.49,5.49,0,*7F
1498432007.23,53332,22.94,73972.0,6.19,5.49,5.49,0,*77
1498432008.41,53333,22.94,73972.3,6.19,5.41,5.49,0,*7E
1498432009.59,53334,22.94,73972.8,6.21,5.49,5.41,0,*72
1498432010.76,53335,22.94,73972.3,6.21,5.41,5.41,0,*7B
1498432011.94,53336,22.94,73972.3,6.19,5.49,5.49,0,*73
1498432013.12,53337,22.94,73974.0,6.21,5.41,5.49,0,*71
1498432014.3,53338,22.94,73976.0,6.19,5.37,5.41,0,*7C
1498432015.48,53339,22.94,73974.8,6.19,5.41,5.41,0,*7C
1498432016.66,53340,22.94,73976.8,6.21,5.37,5.29,0,*76
1498432017.83,53341,22.94,73972.8,6.21,5.41,5.41,0,*78
1498432019.01,53342,22.94,73974.5,6.19,5.49,5.49,0,*70
1498432020.19,53343,22.94,73972.3,6.21,5.41,5.49,0,*72
1498432021.37,53344,22.94,73974.8,6.21,5.41,5.49,0,*75
1498432022.54,53345,22.94,73970.8,6.21,5.49,5.49,0,*7C
1498432023.72,53346,22.94,73974.5,6.21,5.41,5.41,0,*7F
1498432024.9,53347,22.94,73974.0,6.19,5.49,5.49,0,*75
1498432026.08,53348,22.94,73972.3,6.19,5.49,5.41,0,*72
1498432027.25,53349,22.94,73974.0,6.21,5.41,5.49,0,*78
1498432028.43,53350,22.94,73972.8,6.21,5.41,5.41,0,*78
1498432029.61,53351,22.94,73972.5,6.19,5.41,5.41,0,*72
1498432030.79,53352,22.94,73974.0,6.19,5.49,5.49,0,*71
1498432031.97,53353,22.94,73974.8,6.19,5.49,5.49,0,*70
1498432033.15,53354,22.94,73974.5,6.19,5.41,5.49,0,*7F
1498432034.33,53355,22.94,73972.3,6.19,5.49,5.41,0,*7E
1498432035.51,53356,22.94,73974.0,6.21,5.37,5.41,0,*7F
1498432036.68,53357,22.94,73970.8,6.21,5.41,5.37,0,*7E
1498432037.85,53358,22.94,73970.8,6.21,5.29,5.29,0,*70
1498432039.02,53359,22.94,73968.8,6.21,5.29,5.29,0,*71
1498432040.23,53360,22.94,73970.0,6.19,5.37,5.27,0,*71
1498432041.41,53361,22.94,73966.0,6.19,5.37,5.29,0,*7E
1498432042.59,53362,22.94,73964.8,6.19,5.37,5.29,0,*7D
1498432043.76,53363,22.94,73966.5,6.21,5.29,5.29,0,*78
1498432044.93,53364,22.94,73966.8,6.21,5.29,5.29,0,*7F
1498432046.1,53365,22.94,73968.0,6.21,5.29,5.29,0,*7E
1498432047.3,53366,22.94,73970.5,6.19,5.29,5.27,0,*78
1498432048.51,53367,22.94,73970.3,6.19,5.27,5.19,0,*7A
1498432049.71,53368,22.94,73970.5,6.19,5.19,5.19,0,*78
1498432050.93,53369,22.94,73968.3,6.19,5.27,5.27,0,*79
1498432052.14,53370,22.94,73968.8,6.19,5.27,5.19,0,*7C
1498432053.35,53371,22.94,73966.0,6.19,5.27,5.19,0,*7D
1498432054.54,53372,22.94,73962.0,6.19,5.19,5.19,0,*73
1498432055.75,53373,22.94,73960.3,6.19,5.27,5.19,0,*7F
1498432056.98,53374,22.94,73962.5,6.19,5.27,5.27,0,*75
1498432058.2,53375,22.94,73960.0,6.19,5.27,5.27,0,*74
1498432059.41,53376,22.94,73958.3,6.19,5.19,5.27,0,*7A
1498432060.6,53377,22.94,73960.5,6.19,5.15,5.19,0,*7A
1498432061.82,53378,22.94,73958.5,6.17,5.11,5.11,0,*77
1498432063.03,53379,22.94,73956.0,6.17,5.23,5.11,0,*77
1498432064.26,53380,22.94,73952.5,6.17,5.11,5.05,0,*75
1498432065.45,53381,22.94,73960.5,6.15,5.11,5.19,0,*7B
1498432066.67,53382,22.94,73960.3,6.17,5.23,5.23,0,*72
1498432067.87,53383,22.94,73960.3,6.17,5.15,5.15,0,*73
1498432069.08,53384,22.94,73958.0,6.17,5.15,5.15,0,*74
1498432070.29,53385,22.94,73962.8,6.17,5.11,5.15,0,*71
1498432071.51,53386,22.94,73958.3,6.15,5.01,5.07,0,*72
1498432072.69,53387,22.94,73962.0,6.15,5.07,5.07,0,*75
1498432073.91,53388,22.94,73962.0,6.17,5.11,5.11,0,*78
1498432075.11,53389,22.94,73960.3,6.17,5.15,5.15,0,*79
1498432076.3,53390,22.94,73966.0,6.15,5.19,5.11,0,*7B
1498432077.49,53391,22.94,73966.3,6.15,5.23,5.19,0,*7B
1498432078.71,53392,22.94,73970.5,6.17,5.23,5.23,0,*73
1498432079.89,53393,22.94,73972.3,6.15,5.29,5.23,0,*7A
1498432081.14,53394,22.94,73970.5,6.17,5.27,5.27,0,*75
1498432082.37,53395,22.94,73968.0,6.17,5.27,5.33,0,*71
1498432083.56,53396,22.94,73970.5,6.15,5.23,5.23,0,*75
1498432084.81,53397,22.94,73966.3,6.17,5.27,5.27,0,*76
1498432086.01,53398,22.94,73968.3,6.17,5.33,5.33,0,*79
1498432087.25,53399,22.94,73970.0,6.17,5.33,5.27,0,*7D
1498432088.5,53400,22.94,73964.5,6.17,5.27,5.27,0,*7F
1498432089.67,53401,22.94,73966.8,6.15,5.29,5.33,0,*77
1498432090.85,53402,22.94,73964.0,6.15,5.29,5.41,0,*71
1498432092.03,53403,22.94,73964.5,6.15,5.41,5.33,0,*7B
1498432093.21,53404,22.94,73964.0,6.15,5.33,5.33,0,*79
1498432094.39,53405,22.94,73964.3,6.15,5.33,5.33,0,*78
1498432095.58,53406,22.94,73968.8,6.15,5.33,5.33,0,*7B
1498432096.78,53407,22.94,73970.5,6.17,5.37,5.37,0,*78
1498432097.98,53408,22.94,73968.8,6.17,5.45,5.33,0,*76
1498432099.16,53409,22.94,73970.3,6.15,5.41,5.41,0,*74
1498432100.34,53410,22.94,73970.0,6.15,5.41,5.33,0,*79
1498432101.54,53411,22.94,73970.0,6.17,5.45,5.45,0,*7F
1498432102.72,53412,22.94,73966.8,6.15,5.33,5.33,0,*7E
1498432103.91,53413,22.94,73966.0,6.15,5.33,5.23,0,*7E
1498432105.09,53414,22.94,73964.5,6.15,5.23,5.29,0,*72
1498432106.27,53415,22.94,73966.8,6.15,5.29,5.33,0,*72
1498432107.44,53416,22.94,73966.5,6.15,5.29,5.29,0,*7A
1498432108.66,53417,22.94,73956.8,6.15,5.27,5.27,0,*7B
1498432109.85,53418,22.94,73962.0,6.15,5.23,5.23,0,*74
1498432111.08,53419,22.94,73962.0,6.17,5.27,5.23,0,*73
1498432112.32,53420,22.94,73958.5,6.17,5.33,5.27,0,*78
1498432113.51,53421,22.94,73956.3,6.15,5.23,5.23,0,*7E
1498432114.7,53422,22.94,73954.5,6.15,5.23,5.23,0,*7D
1498432115.89,53423,22.94,73954.3,6.15,5.19,5.23,0,*75
1498432117.08,53424,22.94,73954.0,6.15,5.19,5.19,0,*7B
1498432118.3,53425,22.94,73954.5,6.17,5.23,5.23,0,*78
1498432119.53,53426,22.94,73958.5,6.17,5.33,5.27,0,*7E
1498432120.71,53427,22.94,73956.5,6.15,5.29,5.23,0,*72
1498432121.9,53428,22.94,73956.0,6.15,5.23,5.23,0,*77
1498432123.09,53429,22.94,73956.5,6.15,5.29,5.23,0,*7C
1498432124.27,53430,22.94,73954.8,6.15,5.23,5.19,0,*77
1498432125.46,53431,22.94,73958.0,6.15,5.23,5.23,0,*7F
1498432126.67,53432,22.94,73960.0,6.13,5.23,5.29,0,*70